Flag for Bahrain Weather past 2 weeks in Riffa, Bahrain

Now
97 °F

Sunny.


Feels Like: 99 °F
Forecast: 93 / 102 °F
Wind: 20 mph from Northwest

Location: Bahrain International Airport

Current Time: Jul 23, 2014 at 10:24:13 AM

Latest Report: Jul 23, 2014 at 9:00 AM


Visibility: 10 mi

Pressure: 29.50 "Hg

Humidity: 34%

Dew point: 64 °F

Location of RiffaLocation

Historic Weather in Riffa — Graph

°F

Riffa temperature yesterday

Maximum temperature yesterday: 100 °F (at 10:00 AM)
Minimum temperature yesterday: 93 °F (at 5:00 AM)
Average temperature yesterday: 97 °F

Past Weeks' High & Low Weather Summary

 TemperatureHumidityPressure
High108 °F (Jul 11, 1:00 PM)79% (Jul 18, 2:00 AM)29.59 "Hg (Jul 18, 2:00 AM)
Low90 °F (Jul 16, 1:00 AM)10% (Jul 16, 12:00 PM)29.33 "Hg (Jul 17, 4:00 PM)
Average97 °F39%29.46 "Hg
* Reported Jul 8 8:00 AM — Jul 23 8:00 AM, Riffa, Weather by CustomWeather, © 2014

Note: Actual official high and low records may vary slightly from our data, if they occured in-between our weather recording intervals... More about our weather records

Advertising

Riffa weather history for previous 24 hours

 ConditionsComfort  
Time TempWeatherWind HumidityBarometerVisibility
8:00 AM
Jul 23
95 °FSunny.16 mph34%29.50 "Hg10 mi
7:00 AM95 °FSunny.16 mph44%29.50 "Hg10 mi
6:00 AM93 °FSunny.15 mph47%29.47 "Hg10 mi
5:00 AM93 °FSunny.15 mph44%29.47 "Hg10 mi
4:00 AM93 °FClear.9 mph41%29.45 "Hg10 mi
3:00 AM93 °FClear.8 mph44%29.45 "Hg10 mi
2:00 AM93 °FClear.8 mph47%29.45 "Hg10 mi
7:00 PM
Jul 22
95 °FClear.15 mph47%29.47 "Hg10 mi
6:00 PM99 °FSunny.16 mph35%29.45 "Hg10 mi
5:00 PM99 °FSunny.14 mph37%29.45 "Hg10 mi
4:00 PM99 °FSunny.16 mph39%29.47 "Hg10 mi
3:00 PM99 °FSunny.17 mph42%29.47 "Hg10 mi
2:00 PM100 °FSunny.18 mph40%29.47 "Hg10 mi
1:00 PM99 °FSunny.18 mph39%29.47 "Hg10 mi
12:00 PM99 °FSunny.18 mph39%29.50 "Hg10 mi
11:00 AM100 °FSunny.20 mph33%29.50 "Hg10 mi
10:00 AM100 °FSunny.17 mph29%29.50 "Hg10 mi
Weather by CustomWeather, © 2014

See weather overviewHow to use our weather pages